RAPIDEYE 5

Last updated on Mon Sep 14 2020 05:43:38 GMT+0000 (Coordinated Universal Time)

1 33313U 08040B 20257.77494582 .00000109 00000-0 15400-4 0 9991 2 33313 97.6828 319.7004 0013871 325.9736 34.0594 14.94403632650905

Satellite not in orbit

RAPIDEYE 5